[[{"header":{"parameterUnit":"m.s-1","parameterCategory":2,"la1":30.2991,"la2":30.254,"lo1":-89.0895,"lo2":-89.0444,"dy":0.0017,"dx":0.0017,"nx":28,"ny":28,"refTime":"2024-04-29T03:00:00:Z","depth":"0","parameterNumber":2,"parameterNumberName":"U-component_of_CURRENTS"},"data":[0,0,0,0,0,0,0,0,0,0,0,0,0,0,0,0,0,0,0,0,0,0,0,0,0,0,0,0,0,0,0,0,0,0,0,0,0,0,0,0,0,0,0,0,0,0,0,0,0,0,0,0,0,0,0,0,0,0,0.1968,0.1968,0,0.1968,0.1968,0.1968,0.1929,0.1928,0.1927,0.1926,0.1927,0.1928,0.1929,0,0,0,0,0,0,0,0,0,0,0,0,0,0.1981,0.198,0.1968,0.1968,0.1969,0.1968,0.1968,0.1968,0.1929,0.1928,0.1927,0.1926,0.1927,0.1928,0.1929,0,0,0,0,0,0,0,0,0,0,0,0,0,0.1975,0.198,0.1968,0.1951,0.1949,0.1968,0.1968,0.1968,0.1929,0.1928,0.1927,0.1926,0.1927,0.1928,0.1929,0.1961,0,0,0.1933,0.1933,0,0,0,0,0,0,0,0,0.1976,0.1974,0.1953,0.1952,0.1951,0.1949,0.1973,0.1966,0.1929,0.1935,0.1926,0.1925,0.1937,0.1937,0.1937,0.1961,0.1961,0.1933,0.1933,0.1934,0.1934,0,0,0,0,0,0,0,0.1976,0.1975,0.1966,0.1954,0.1952,0.1959,0.1956,0.1971,0.1941,0.1934,0.1932,0.1936,0.1936,0.1936,0.1937,0.1961,0.1933,0.1934,0.1934,0.1935,0.2003,0.2005,0,0,0,0,0,0,0.1979,0.1975,0.1966,0.1966,0.1963,0.196,0.1956,0.1949,0.1941,0.1939,0.1937,0.1934,0.1934,0.1935,0.1936,0.1988,0.1934,0.1935,0.1936,0.2002,0.2004,0.2005,0,0,0,0,0,0,0.1979,0.1978,0.1966,0.1973,0.1972,0.1961,0.1953,0.195,0.1951,0.1943,0.194,0.1942,0.1933,0.1935,0.1949,0.1987,0.1935,0.1937,0.2001,0.2003,0.2004,0.2083,0,0,0,0,0,0,0.1979,0.1978,0.1985,0.1973,0.1972,0.1985,0.1954,0.1951,0.1957,0.1953,0.1947,0.1945,0.1933,0.1947,0.195,0.1988,0.1937,0.2,0.2002,0.2004,0.2079,0.2087,0.2094,0,0,0,0,0,0.198,0.1981,0.1985,0.1984,0.1977,0.1986,0.1987,0.1973,0.1958,0.1968,0.1957,0.1946,0.1962,0.1949,0.1952,0.1991,0.1999,0.2001,0.2004,0.2075,0.2085,0.2094,0,0,0,0,0,0,0.1989,0.1978,0.1981,0.1979,0.1991,0.198,0.1987,0.1983,0.1982,0.1977,0.1961,0.196,0.1985,0.1977,0.1962,0.2015,0.1979,0.1983,0.2033,0.2042,0.205,0.2055,0.1938,0,0,0,0,0,0.1998,0.1995,0.1997,0.2001,0.2005,0.2003,0.2008,0.2002,0.1997,0.1995,0.199,0.1988,0.2,0.201,0.2012,0.2048,0.2063,0.2073,0.2081,0.2087,0.2093,0.2145,0.2159,0.2013,0.2013,0.2013,0,0,0.1999,0.1999,0.1995,0.2005,0.2007,0.202,0.2001,0.2011,0.2029,0.1999,0.2016,0.2014,0.2013,0.2044,0.2057,0.2043,0.2141,0.2091,0.2096,0.2098,0.215,0.2164,0.2177,0.2015,0.2015,0.2014,0,0,0.2001,0.2005,0.2004,0.2019,0.2035,0.2039,0.2046,0.2047,0.2054,0.2073,0.206,0.2082,0.2087,0.2106,0.2114,0.2168,0.2175,0.2169,0.2221,0.2273,0.2286,0.2297,0.2358,0.2375,0.2179,0.2179,0.2179,0,0.2005,0.2008,0.2011,0.2024,0.204,0.2049,0.2065,0.2081,0.2089,0.2112,0.2083,0.2118,0.2119,0.2178,0.2193,0.2189,0.2218,0.2189,0.2285,0.2296,0.2307,0.2366,0.2383,0.2183,0.2182,0.2182,0.2182,0,0.2003,0.202,0.2024,0.2042,0.2067,0.2082,0.2109,0.2138,0.2144,0.216,0.2208,0.2208,0.2232,0.2243,0.2233,0.2317,0.2315,0.2287,0.2266,0.2327,0.2385,0.2401,0.2189,0.2187,0.2186,0.2185,0,0,0.1958,0.201,0.2011,0.2041,0.2079,0.2097,0.2148,0.2199,0.2238,0.2253,0.2305,0.2332,0.2337,0.2346,0.2351,0.2396,0.2502,0.2377,0.2378,0.2445,0.2633,0.2702,0.2726,0.2493,0.2496,0.2498,0.2654,0,0.1955,0.1989,0.2018,0.2066,0.2088,0.2136,0.2184,0.224,0.2277,0.2332,0.2365,0.2403,0.2378,0.2397,0.2443,0.2484,0.2544,0.2463,0.2557,0.256,0.262,0.2747,0.2761,0.2907,0.267,0.2672,0.2674,0,0.1932,0.1968,0.2007,0.2095,0.2109,0.214,0.2232,0.2277,0.2369,0.2404,0.2459,0.2477,0.2563,0.2513,0.2634,0.2585,0.262,0.2643,0.2649,0.2695,0.266,0.2803,0.2945,0.2937,0.2699,0.2697,0.2695,0,0.1893,0.1961,0.1999,0.2022,0.2112,0.2152,0.2202,0.2292,0.2354,0.2451,0.2505,0.2584,0.264,0.269,0.2755,0.27,0.2886,0.2813,0.2912,0.2917,0.2939,0.2942,0.309,0.2903,0.2903,0.2902,0.2902,0,0.1868,0.1901,0.1983,0.2003,0.2063,0.2133,0.2205,0.2274,0.2383,0.2461,0.2534,0.262,0.2686,0.2793,0.2815,0.2952,0.2946,0.2963,0.2979,0.2969,0.2973,0.297,0.2911,0.2908,0.2907,0.2906,0.2905,0,0.1811,0.1863,0.1915,0.2011,0.2042,0.208,0.2202,0.226,0.2371,0.2479,0.2518,0.2685,0.2844,0.2927,0.3045,0.3058,0.3104,0.3189,0.3187,0.3201,0.3258,0.3202,0.3153,0.3043,0.3324,0.3327,0.3329,0,0.1781,0.18,0.1899,0.1931,0.1971,0.2044,0.2099,0.2229,0.2305,0.2515,0.2574,0.2779,0.2937,0.3184,0.3272,0.3395,0.3239,0.3439,0.3332,0.3318,0.3265,0.3036,0.2927,0.3396,0.3399,0.3401,0.3403,0,0.1733,0.1766,0.1814,0.1876,0.1932,0.2003,0.2097,0.2157,0.2316,0.2448,0.2653,0.2807,0.3109,0.3299,0.3488,0.3533,0.3326,0.3489,0.3475,0.3359,0.3117,0.3001,0.3233,0.3423,0.3421,0.342,0.3419,0.3418,0.1692,0.1711,0.1772,0.1826,0.1886,0.1947,0.1983,0.2116,0.2249,0.2437,0.2638,0.2883,0.3239,0.3547,0.3566,0.3684,0.3489,0.364,0.3584,0.336,0.3221,0.3518,0.3718,0.3717,0.3717,0.3717,0.3716,0,0.164,0.1677,0.1723,0.1785,0.1815,0.1876,0.1974,0.2017,0.2147,0.241,0.2621,0.3051,0.3346,0.3576,0.3863,0.3815,0.354,0.3737,0.3426,0.3315,0.3638,0.3615,0.3801,0.3801,0.3801,0.3801,0.3801,0.3801,0.1619,0.1641,0.1668,0.1696,0.1737,0.1759,0.1796,0.189,0.2072,0.2368,0.2648,0.2897,0.3411,0.3872,0.401,0.3919,0.3575,0.3482,0.3334,0.363,0.3615,0.36,0.3569,0.3742,0.3742,0.2911,0.2906,0.2902]},{"header":{"parameterUnit":"m.s-1","parameterCategory":2,"la1":30.2991,"la2":30.254,"lo1":-89.0895,"lo2":-89.0444,"dy":0.0017,"dx":0.0017,"nx":28,"ny":28,"refTime":"2024-04-29T03:00:00:Z","depth":"0","parameterNumber":3,"parameterNumberName":"V-component_of_CURRENTS"},"data":[0,0,0,0,0,0,0,0,0,0,0,0,0,0,0,0,0,0,0,0,0,0,0,0,0,0,0,0,0,0,0,0,0,0,0,0,0,0,0,0,0,0,0,0,0,0,0,0,0,0,0,0,0,0,0,0,0,0,-0.0547,-0.0548,0,-0.0654,-0.0656,-0.0657,-0.0757,-0.0758,-0.076,-0.0761,-0.0895,-0.0898,-0.09,0,0,0,0,0,0,0,0,0,0,0,0,0,-0.0457,-0.0458,-0.0547,-0.0548,-0.055,-0.0654,-0.0656,-0.0657,-0.0757,-0.0758,-0.076,-0.0761,-0.0895,-0.0898,-0.09,0,0,0,0,0,0,0,0,0,0,0,0,0,-0.0523,-0.0458,-0.0547,-0.0612,-0.0619,-0.0654,-0.0656,-0.0657,-0.0757,-0.0758,-0.076,-0.0762,-0.0894,-0.0897,-0.0901,-0.0887,0,0,-0.0912,-0.0914,0,0,0,0,0,0,0,0,-0.0519,-0.0527,-0.0601,-0.0607,-0.0615,-0.0694,-0.0673,-0.0736,-0.0756,-0.0705,-0.0761,-0.0763,-0.0829,-0.0838,-0.0854,-0.0893,-0.0899,-0.0912,-0.0915,-0.0916,-0.0917,0,0,0,0,0,0,0,-0.0515,-0.0523,-0.059,-0.0602,-0.0611,-0.0645,-0.0656,-0.0686,-0.0756,-0.0709,-0.0717,-0.0727,-0.0833,-0.085,-0.0858,-0.0901,-0.0912,-0.0916,-0.0918,-0.0919,-0.0936,-0.0934,0,0,0,0,0,0,-0.0497,-0.0518,-0.0587,-0.0593,-0.057,-0.0645,-0.0658,-0.0667,-0.0755,-0.077,-0.0726,-0.0732,-0.0843,-0.0854,-0.0863,-0.0843,-0.0916,-0.092,-0.0922,-0.0938,-0.0935,-0.0933,0,0,0,0,0,0,-0.0495,-0.0502,-0.0582,-0.0558,-0.0571,-0.0644,-0.0654,-0.0668,-0.0685,-0.0768,-0.0784,-0.0729,-0.0845,-0.0858,-0.088,-0.0849,-0.0921,-0.0925,-0.094,-0.0937,-0.0934,-0.0808,0,0,0,0,0,0,-0.0492,-0.05,-0.0494,-0.0556,-0.0571,-0.0584,-0.0653,-0.0669,-0.0689,-0.0698,-0.0775,-0.079,-0.0848,-0.0874,-0.0884,-0.0856,-0.0928,-0.0942,-0.0938,-0.0935,-0.0814,-0.0801,-0.079,0,0,0,0,0,-0.0488,-0.0462,-0.0493,-0.0501,-0.0563,-0.0582,-0.0592,-0.0652,-0.0687,-0.0677,-0.0735,-0.0787,-0.086,-0.0876,-0.0888,-0.086,-0.0944,-0.0939,-0.0936,-0.0819,-0.0804,-0.079,0,0,0,0,0,0,-0.0417,-0.0472,-0.0507,-0.05,-0.0533,-0.0599,-0.0593,-0.0636,-0.0673,-0.0682,-0.0767,-0.0784,-0.0794,-0.0836,-0.0851,-0.0853,-0.0909,-0.0907,-0.0817,-0.0802,-0.079,-0.0785,-0.0931,0,0,0,0,0,-0.0398,-0.0396,-0.0455,-0.0447,-0.0459,-0.0524,-0.0538,-0.0577,-0.0622,-0.0641,-0.0698,-0.0749,-0.0784,-0.0801,-0.084,-0.0835,-0.0885,-0.0824,-0.0811,-0.0801,-0.0803,-0.0846,-0.0838,-0.092,-0.092,-0.0921,0,0,-0.037,-0.0398,-0.0399,-0.0432,-0.0465,-0.0464,-0.0536,-0.0543,-0.0548,-0.0647,-0.066,-0.071,-0.0774,-0.0777,-0.0784,-0.081,-0.0798,-0.0796,-0.0786,-0.0795,-0.0841,-0.0833,-0.0826,-0.0918,-0.0918,-0.0919,0,0,-0.0306,-0.0334,-0.0314,-0.0332,-0.0367,-0.0404,-0.0399,-0.0455,-0.0483,-0.0497,-0.0571,-0.0599,-0.065,-0.0691,-0.0718,-0.0657,-0.0735,-0.0664,-0.0597,-0.0637,-0.0631,-0.0627,-0.0657,-0.0657,-0.0655,-0.0654,-0.0654,0,-0.027,-0.0262,-0.0307,-0.0292,-0.0302,-0.0369,-0.0351,-0.0377,-0.0435,-0.0454,-0.0482,-0.0564,-0.061,-0.0629,-0.0608,-0.063,-0.0667,-0.0647,-0.0622,-0.0619,-0.0617,-0.0649,-0.065,-0.0648,-0.0649,-0.0649,-0.065,0,-0.0203,-0.0195,-0.0176,-0.0189,-0.0198,-0.0185,-0.0235,-0.0246,-0.0287,-0.0331,-0.0361,-0.0426,-0.0481,-0.0486,-0.0529,-0.0528,-0.0564,-0.0604,-0.066,-0.0601,-0.0639,-0.0642,-0.0638,-0.0641,-0.0643,-0.0644,0,0,-0.0133,-0.0131,-0.0126,-0.0122,-0.0144,-0.0148,-0.014,-0.0166,-0.0174,-0.0221,-0.0237,-0.0283,-0.0337,-0.037,-0.0427,-0.0452,-0.0451,-0.0509,-0.0514,-0.054,-0.0536,-0.0533,-0.0537,-0.0492,-0.0492,-0.0493,-0.0562,0,-0.0072,-0.0024,-0.0043,-0.0003,0.0014,-0.0037,-0.003,-0.0062,-0.0101,-0.0128,-0.0196,-0.0229,-0.0288,-0.031,-0.0343,-0.0435,-0.0458,-0.0429,-0.059,-0.0595,-0.0601,-0.054,-0.0513,-0.057,-0.0566,-0.0566,-0.0567,0,-0.0006,0.0013,0.0064,0.007,0.0072,0.0083,0.0065,0.0061,0.001,-0.0022,-0.007,-0.0135,-0.0183,-0.0238,-0.0358,-0.034,-0.0422,-0.0489,-0.0494,-0.0543,-0.0598,-0.0634,-0.0577,-0.076,-0.0573,-0.0572,-0.0572,0,0.0053,0.0087,0.0127,0.0131,0.013,0.0135,0.0127,0.009,0.0093,0.004,0.0037,-0.0053,-0.0088,-0.0205,-0.0333,-0.0351,-0.0464,-0.0515,-0.059,-0.0591,-0.0626,-0.0629,-0.0769,-0.0593,-0.0593,-0.0592,-0.0592,0,0.0123,0.0153,0.0155,0.0176,0.0208,0.0185,0.0208,0.0184,0.017,0.0189,0.0092,0.0094,-0.008,-0.0165,-0.0302,-0.0443,-0.0445,-0.0567,-0.0604,-0.0577,-0.0575,-0.0785,-0.0909,-0.0595,-0.0595,-0.0594,-0.0594,0,0.0179,0.0188,0.0225,0.0233,0.0238,0.0253,0.0268,0.0289,0.0263,0.0288,0.0283,0.0206,0.01,-0.0069,-0.0251,-0.0387,-0.0646,-0.0584,-0.0529,-0.0558,-0.0803,-0.092,-0.1126,-0.1247,-0.0686,-0.0686,-0.0686,0,0.0212,0.024,0.0262,0.0286,0.029,0.0312,0.0337,0.0331,0.0363,0.0367,0.0395,0.0316,0.0293,0.003,-0.0225,-0.0456,-0.0651,-0.0601,-0.0633,-0.0801,-0.096,-0.1047,-0.1142,-0.0627,-0.0627,-0.0627,-0.0627,0,0.0262,0.0264,0.0289,0.0341,0.0375,0.0418,0.0456,0.0504,0.0514,0.0554,0.061,0.0606,0.0369,0.0161,-0.0168,-0.0348,-0.0751,-0.0604,-0.0802,-0.0938,-0.1022,-0.116,-0.0598,-0.0625,-0.0625,-0.0625,-0.0625,-0.0625,0.0285,0.0308,0.0343,0.0392,0.0443,0.0524,0.0583,0.0655,0.0742,0.0847,0.0812,0.0881,0.054,0.0108,-0.0202,-0.0714,-0.0757,-0.0859,-0.0989,-0.1062,-0.1175,-0.0595,-0.0649,-0.065,-0.065,-0.065,-0.065,0,0.0312,0.0344,0.0396,0.0463,0.0539,0.0557,0.0668,0.0755,0.0896,0.1033,0.1117,0.1061,0.0598,0.0114,-0.0576,-0.0992,-0.119,-0.1237,-0.1371,-0.1455,-0.0949,-0.094,-0.1029,-0.1029,-0.1029,-0.1029,-0.1029,-0.1028,0.0328,0.038,0.0409,0.0533,0.0594,0.0715,0.0795,0.0948,0.1084,0.1307,0.1429,0.1479,0.1201,-0.0172,-0.1135,-0.1399,-0.1727,-0.179,-0.1994,-0.1653,-0.1628,-0.1604,-0.1623,-0.1854,-0.1856,-0.2435,-0.2441,-0.2445]}],[{"header":{"parameterUnit":"m.s-1","parameterCategory":2,"la1":30.2991,"la2":30.254,"lo1":-89.0895,"lo2":-89.0444,"dy":0.0017,"dx":0.0017,"nx":28,"ny":28,"refTime":"2024-04-29T03:00:00:Z","depth":"2","parameterNumber":2,"parameterNumberName":"U-component_of_CURRENTS"},"data":[0,0,0,0,0,0,0,0,0,0,0,0,0,0,0,0,0,0,0,0,0,0,0,0,0,0,0,0,0,0,0,0,0,0,0,0,0,0,0,0,0,0,0,0,0,0,0,0,0,0,0,0,0,0,0,0,0,0,0.2087,0.2087,0,0.2144,0.2145,0.2145,0.2199,0.2199,0.22,0.2201,0.2226,0.2226,0.2226,0,0,0,0,0,0,0,0,0,0,0,0,0,0.203,0.2031,0.2087,0.2087,0.2088,0.2144,0.2145,0.2145,0.2198,0.2199,0.22,0.2201,0.2226,0.2226,0.2226,0,0,0,0,0,0,0,0,0,0,0,0,0,0.2066,0.2031,0.2086,0.2123,0.2127,0.2144,0.2145,0.2145,0.2198,0.2199,0.2201,0.2202,0.2226,0.2226,0.2226,0.22,0,0,0.2225,0.2225,0,0,0,0,0,0,0,0,0.2064,0.2068,0.2117,0.212,0.2125,0.2167,0.2134,0.2163,0.2198,0.2169,0.2201,0.2202,0.2203,0.2205,0.2211,0.2201,0.2202,0.2225,0.2225,0.2225,0.2225,0,0,0,0,0,0,0,0.2061,0.2066,0.2108,0.2117,0.2123,0.2139,0.2145,0.214,0.2177,0.2172,0.2176,0.2185,0.2205,0.2211,0.2212,0.2203,0.2225,0.2225,0.2225,0.2225,0.2211,0.2211,0,0,0,0,0,0,0.2056,0.2063,0.2106,0.2109,0.2099,0.2139,0.2146,0.2151,0.2178,0.2184,0.2184,0.2187,0.2211,0.2212,0.2213,0.2234,0.2225,0.2225,0.2225,0.2211,0.2211,0.2211,0,0,0,0,0,0,0.2054,0.2059,0.2104,0.2089,0.2096,0.2139,0.2144,0.2151,0.2157,0.2188,0.2193,0.2182,0.2212,0.2213,0.2216,0.2233,0.2225,0.2225,0.2212,0.2211,0.2211,0.2243,0,0,0,0,0,0,0.2052,0.2058,0.2053,0.2089,0.2097,0.2107,0.2143,0.2152,0.2161,0.2166,0.2187,0.2192,0.2213,0.2217,0.2216,0.2233,0.2225,0.2212,0.2212,0.2211,0.2243,0.2244,0.2245,0,0,0,0,0,0.205,0.2041,0.2053,0.2058,0.2091,0.2106,0.2111,0.2145,0.216,0.2155,0.218,0.2191,0.2213,0.2216,0.2216,0.2233,0.2212,0.2212,0.2211,0.2242,0.2244,0.2245,0,0,0,0,0,0,0.2013,0.2047,0.206,0.2061,0.2079,0.2116,0.2121,0.2134,0.2149,0.216,0.2183,0.2188,0.2198,0.2198,0.22,0.2225,0.2215,0.2215,0.2239,0.2241,0.2242,0.2266,0.2224,0,0,0,0,0,0.2002,0.2009,0.2037,0.2039,0.2048,0.2079,0.2087,0.211,0.2132,0.214,0.2157,0.2176,0.2193,0.2203,0.221,0.2216,0.2242,0.2226,0.2227,0.2228,0.2245,0.2293,0.2301,0.2209,0.2209,0.2209,0,0,0.199,0.2011,0.2014,0.2033,0.2055,0.2075,0.2087,0.2103,0.2129,0.2138,0.2168,0.2173,0.2191,0.2213,0.2217,0.2219,0.2267,0.2228,0.2229,0.2246,0.2293,0.2303,0.2311,0.2208,0.2208,0.2208,0,0,0.1982,0.1987,0.1996,0.2011,0.2041,0.2063,0.2062,0.2093,0.2113,0.213,0.2155,0.2173,0.2183,0.2219,0.2235,0.2239,0.2267,0.2231,0.2269,0.2314,0.2323,0.2332,0.2381,0.2393,0.224,0.224,0.224,0,0.1967,0.1986,0.1997,0.2016,0.2039,0.2057,0.2078,0.2098,0.2127,0.2151,0.2143,0.219,0.2197,0.2251,0.2262,0.2247,0.2277,0.2266,0.232,0.2329,0.2337,0.2385,0.2398,0.2241,0.2241,0.2241,0.2241,0,0.1973,0.1991,0.1998,0.2036,0.2053,0.207,0.2107,0.2124,0.2144,0.2174,0.2211,0.2223,0.2262,0.2259,0.2267,0.2326,0.233,0.2313,0.2324,0.2349,0.2397,0.241,0.2244,0.2243,0.2243,0.2242,0,0,0.1934,0.1992,0.1995,0.2023,0.2068,0.2083,0.2129,0.2177,0.2215,0.2233,0.2288,0.2312,0.2322,0.2339,0.2346,0.2383,0.246,0.2377,0.2379,0.2441,0.2573,0.2595,0.2611,0.2457,0.2459,0.2461,0.2586,0,0.1938,0.198,0.2011,0.2056,0.208,0.2123,0.2166,0.2213,0.2248,0.23,0.2331,0.2372,0.2353,0.2374,0.2412,0.2449,0.2496,0.2429,0.2527,0.253,0.256,0.2628,0.2445,0.2543,0.2599,0.2602,0.2603,0,0.1933,0.1967,0.2011,0.2082,0.2097,0.2127,0.2204,0.2243,0.2323,0.2357,0.2411,0.2433,0.2506,0.2469,0.2572,0.2532,0.2562,0.2581,0.2586,0.2609,0.2577,0.2525,0.2565,0.2626,0.2624,0.2622,0.2621,0,0.1902,0.1965,0.2004,0.2025,0.2104,0.2138,0.218,0.2258,0.2309,0.2396,0.2448,0.2519,0.2572,0.2617,0.2671,0.263,0.2781,0.2726,0.2775,0.2777,0.2643,0.263,0.2802,0.2802,0.2802,0.2801,0.2801,0,0.1893,0.1921,0.1991,0.2011,0.2058,0.2121,0.2181,0.2237,0.2336,0.2403,0.2472,0.2546,0.2613,0.2702,0.2721,0.2817,0.2831,0.2814,0.2823,0.2648,0.2635,0.2714,0.2702,0.2806,0.2805,0.2804,0.2803,0,0.185,0.19,0.1939,0.2018,0.2044,0.2071,0.2175,0.2223,0.2324,0.2417,0.2455,0.2603,0.273,0.2801,0.29,0.2899,0.2966,0.2988,0.2789,0.2774,0.2913,0.2901,0.3057,0.3059,0.3061,0.3062,0.3063,0,0.1831,0.1849,0.1919,0.1942,0.1977,0.2034,0.2082,0.2197,0.2259,0.2445,0.2494,0.2668,0.2778,0.2965,0.3008,0.3088,0.3065,0.294,0.2826,0.2952,0.2945,0.293,0.2916,0.2653,0.2651,0.2649,0.2648,0,0.1788,0.1811,0.1844,0.1889,0.1935,0.1987,0.2066,0.2116,0.2256,0.2362,0.2519,0.2632,0.2848,0.2884,0.3013,0.3009,0.2911,0.2909,0.3106,0.2627,0.2585,0.2574,0.257,0.2632,0.2633,0.2634,0.2635,0.2636,0.1743,0.1749,0.1793,0.183,0.1879,0.1925,0.1947,0.2052,0.2152,0.2288,0.2452,0.2573,0.2691,0.2821,0.2786,0.2765,0.294,0.2797,0.2796,0.2799,0.274,0.2705,0.2763,0.2765,0.2767,0.2769,0.277,0,0.1679,0.1705,0.1736,0.1776,0.1794,0.1854,0.1927,0.1943,0.2022,0.2198,0.2335,0.2281,0.239,0.2477,0.2457,0.2506,0.2401,0.2383,0.222,0.2244,0.2263,0.2167,0.2042,0.2039,0.2035,0.2032,0,0,0.1651,0.1654,0.1674,0.168,0.1712,0.1718,0.1741,0.1786,0.189,0.1957,0.2037,0.2298,0.245,0.2202,0.2219,0.2123,0.2136,0.2044,0.2651,0.2485,0.2498,0.2556,0.2445,0,0,0,0,0]},{"header":{"parameterUnit":"m.s-1","parameterCategory":2,"la1":30.2991,"la2":30.254,"lo1":-89.0895,"lo2":-89.0444,"dy":0.0017,"dx":0.0017,"nx":28,"ny":28,"refTime":"2024-04-29T03:00:00:Z","depth":"2","parameterNumber":3,"parameterNumberName":"V-component_of_CURRENTS"},"data":[0,0,0,0,0,0,0,0,0,0,0,0,0,0,0,0,0,0,0,0,0,0,0,0,0,0,0,0,0,0,0,0,0,0,0,0,0,0,0,0,0,0,0,0,0,0,0,0,0,0,0,0,0,0,0,0,0,0,-0.0129,-0.0129,0,-0.0222,-0.0224,-0.0225,-0.0353,-0.0355,-0.0357,-0.0359,-0.0538,-0.0541,-0.0544,0,0,0,0,0,0,0,0,0,0,0,0,0,-0.0054,-0.0055,-0.0128,-0.013,-0.0131,-0.0222,-0.0224,-0.0225,-0.0353,-0.0355,-0.0358,-0.036,-0.0537,-0.0541,-0.0544,0,0,0,0,0,0,0,0,0,0,0,0,0,-0.0112,-0.0055,-0.0128,-0.0205,-0.0212,-0.0222,-0.0224,-0.0225,-0.0352,-0.0355,-0.0358,-0.0361,-0.0536,-0.054,-0.0545,-0.0509,0,0,-0.0558,-0.056,0,0,0,0,0,0,0,0,-0.0108,-0.0114,-0.0192,-0.0199,-0.0208,-0.0278,-0.0263,-0.0324,-0.0351,-0.03,-0.0359,-0.0363,-0.0456,-0.0467,-0.0478,-0.0517,-0.0525,-0.0558,-0.0561,-0.0562,-0.0564,0,0,0,0,0,0,0,-0.0104,-0.0111,-0.0167,-0.0193,-0.0203,-0.0232,-0.0244,-0.0275,-0.0362,-0.0305,-0.0314,-0.0322,-0.0462,-0.0474,-0.0484,-0.0528,-0.0558,-0.0562,-0.0564,-0.0566,-0.0592,-0.059,0,0,0,0,0,0,-0.0087,-0.0107,-0.0164,-0.0169,-0.0164,-0.0231,-0.0244,-0.0253,-0.036,-0.0378,-0.0319,-0.0328,-0.0465,-0.0479,-0.0491,-0.0521,-0.0562,-0.0566,-0.0569,-0.0594,-0.0592,-0.059,0,0,0,0,0,0,-0.0085,-0.0091,-0.016,-0.014,-0.0151,-0.0229,-0.0238,-0.0254,-0.0278,-0.037,-0.0391,-0.0329,-0.0468,-0.0485,-0.0526,-0.0527,-0.0568,-0.0572,-0.0596,-0.0593,-0.0591,-0.054,0,0,0,0,0,0,-0.0083,-0.009,-0.0091,-0.0138,-0.0151,-0.0183,-0.0236,-0.0253,-0.0277,-0.0289,-0.0384,-0.0404,-0.0472,-0.0519,-0.053,-0.0534,-0.0576,-0.0598,-0.0595,-0.0591,-0.0544,-0.0536,-0.0529,0,0,0,0,0,-0.008,-0.0085,-0.009,-0.0098,-0.015,-0.0183,-0.0193,-0.0259,-0.0274,-0.0289,-0.0342,-0.0402,-0.0505,-0.0521,-0.0535,-0.0539,-0.06,-0.0596,-0.0592,-0.0547,-0.0537,-0.0529,0,0,0,0,0,0,-0.0063,-0.0098,-0.0107,-0.0124,-0.0152,-0.0205,-0.0225,-0.0243,-0.0291,-0.0306,-0.0382,-0.0404,-0.0445,-0.0476,-0.0492,-0.0529,-0.0559,-0.0558,-0.0521,-0.0512,-0.0504,-0.0495,-0.0579,0,0,0,0,0,-0.0048,-0.0061,-0.0094,-0.0106,-0.0118,-0.0156,-0.0174,-0.021,-0.0255,-0.028,-0.0338,-0.0388,-0.043,-0.046,-0.0507,-0.0519,-0.0549,-0.0524,-0.0517,-0.051,-0.0507,-0.0541,-0.0537,-0.0576,-0.0576,-0.0576,0,0,-0.0046,-0.0064,-0.0073,-0.0102,-0.0129,-0.0139,-0.0178,-0.0206,-0.0215,-0.0288,-0.0324,-0.037,-0.0425,-0.0459,-0.0477,-0.0492,-0.0511,-0.0505,-0.05,-0.05,-0.0536,-0.0533,-0.053,-0.0573,-0.0573,-0.0574,0,0,-0.004,-0.0059,-0.0063,-0.0079,-0.0108,-0.013,-0.0129,-0.0171,-0.02,-0.0219,-0.0276,-0.0313,-0.037,-0.0418,-0.0444,-0.0407,-0.0472,-0.0416,-0.0377,-0.0409,-0.0407,-0.0406,-0.0431,-0.0432,-0.0411,-0.0411,-0.041,0,-0.0032,-0.0038,-0.0069,-0.0072,-0.0078,-0.0117,-0.0112,-0.0139,-0.0188,-0.0197,-0.023,-0.0297,-0.0352,-0.0382,-0.0379,-0.0397,-0.0419,-0.0416,-0.0403,-0.0402,-0.0402,-0.0428,-0.043,-0.0408,-0.0408,-0.0408,-0.0409,0,-0.0025,-0.0027,-0.0033,-0.0043,-0.0052,-0.0061,-0.0088,-0.0102,-0.0123,-0.0148,-0.0183,-0.0249,-0.0289,-0.0306,-0.0339,-0.0353,-0.0371,-0.0395,-0.0434,-0.0395,-0.0424,-0.0427,-0.0403,-0.0404,-0.0405,-0.0406,0,0,-0.0008,-0.0023,-0.0022,-0.0009,-0.0034,-0.0034,-0.0044,-0.0057,-0.0051,-0.0106,-0.0106,-0.0176,-0.0207,-0.0235,-0.028,-0.0308,-0.0327,-0.0343,-0.0346,-0.0381,-0.0394,-0.0401,-0.0406,-0.0354,-0.0355,-0.0355,-0.0413,0,0.0012,0.0027,0.0011,0.0033,0.0044,0.0018,0.0019,0.0003,-0.0022,-0.0037,-0.0099,-0.0125,-0.0181,-0.0195,-0.0234,-0.0304,-0.0334,-0.0309,-0.0414,-0.0416,-0.044,-0.041,-0.0385,-0.0435,-0.0417,-0.0417,-0.0418,0,0.003,0.0043,0.0069,0.0091,0.0094,0.01,0.0113,0.0106,0.0071,0.0049,0.0008,-0.004,-0.0092,-0.014,-0.0249,-0.023,-0.0303,-0.0359,-0.0364,-0.0392,-0.043,-0.047,-0.0442,-0.0424,-0.0423,-0.0423,-0.0422,0,0.0075,0.0089,0.0119,0.0123,0.0133,0.0146,0.0149,0.0133,0.0146,0.0105,0.011,0.0027,-0.0001,-0.0106,-0.0223,-0.0236,-0.0339,-0.0376,-0.0452,-0.0454,-0.0464,-0.0466,-0.0449,-0.0449,-0.0449,-0.0449,-0.0449,0,0.0105,0.0133,0.0144,0.0163,0.0209,0.0197,0.0233,0.0223,0.0219,0.0247,0.0159,0.0166,0.0008,-0.0067,-0.0193,-0.0325,-0.032,-0.0439,-0.0468,-0.0443,-0.0441,-0.0459,-0.0459,-0.0451,-0.045,-0.045,-0.045,0,0.0145,0.0145,0.0191,0.0217,0.023,0.0264,0.0298,0.0329,0.0309,0.0345,0.0341,0.0275,0.0175,0.0017,-0.0146,-0.0271,-0.0407,-0.0455,-0.0409,-0.0431,-0.051,-0.0507,-0.0552,-0.0552,-0.0553,-0.0554,-0.0554,0,0.0164,0.0189,0.024,0.0275,0.0287,0.0329,0.0364,0.0369,0.0407,0.0421,0.0451,0.0377,0.0345,0.0097,-0.0139,-0.0358,-0.0392,-0.0484,-0.0512,-0.0496,-0.052,-0.0516,-0.0512,-0.0504,-0.0504,-0.0504,-0.0504,0,0.0214,0.0229,0.027,0.0338,0.0386,0.0444,0.0494,0.0544,0.0561,0.0597,0.0644,0.0629,0.0398,0.0189,-0.0121,-0.0279,-0.0452,-0.0491,-0.0488,-0.0478,-0.0456,-0.0477,-0.0474,-0.0504,-0.0504,-0.0504,-0.0504,-0.0504,0.0258,0.0294,0.0346,0.0411,0.0472,0.0555,0.0618,0.0686,0.0768,0.0848,0.0812,0.0808,0.0542,0.0171,-0.0124,-0.0443,-0.0438,-0.0543,-0.0542,-0.0541,-0.052,-0.05,-0.0553,-0.0553,-0.0554,-0.0554,-0.0554,0,0.0311,0.0351,0.0416,0.0498,0.0576,0.0596,0.0707,0.078,0.0898,0.0976,0.1025,0.082,0.0564,0.0252,-0.0215,-0.0496,-0.0528,-0.0583,-0.0557,-0.0555,-0.0554,-0.0534,-0.0571,-0.0572,-0.0572,-0.0573,0,0,0.0345,0.0413,0.0442,0.0572,0.0635,0.0751,0.0825,0.0944,0.1027,0.1125,0.114,0.1102,0.0704,0.0378,-0.0021,-0.0293,-0.036,-0.0352,-0.031,-0.0231,-0.0226,-0.0504,-0.0467,0,0,0,0,0]}],[{"header":{"parameterUnit":"m.s-1","parameterCategory":2,"la1":30.2991,"la2":30.254,"lo1":-89.0895,"lo2":-89.0444,"dy":0.0017,"dx":0.0017,"nx":28,"ny":28,"refTime":"2024-04-29T03:00:00:Z","depth":"4","parameterNumber":2,"parameterNumberName":"U-component_of_CURRENTS"},"data":[0,0,0,0,0,0,0,0,0,0,0,0,0,0,0,0,0,0,0,0,0,0,0,0,0,0,0,0,0,0,0,0,0,0,0,0,0,0,0,0,0,0,0,0,0,0,0,0,0,0,0,0,0,0,0,0,0,0,0.1364,0.1364,0,0.1419,0.1419,0.1419,0.1444,0.1444,0.1445,0.1445,0.1508,0.151,0.1511,0,0,0,0,0,0,0,0,0,0,0,0,0,0.1261,0.1263,0.1363,0.1364,0.1365,0.1419,0.1419,0.1419,0.1444,0.1444,0.1445,0.1445,0.1508,0.151,0.1512,0,0,0,0,0,0,0,0,0,0,0,0,0,0.1307,0.1263,0.1363,0.1386,0.1389,0.1418,0.1419,0.142,0.1444,0.1444,0.1445,0.1445,0.1507,0.151,0.1512,0.152,0,0,0.1519,0.152,0,0,0,0,0,0,0,0,0.1305,0.1311,0.1382,0.1385,0.1388,0.1427,0.1407,0.1455,0.1444,0.142,0.1445,0.1445,0.1484,0.1488,0.1494,0.1523,0.1526,0.1519,0.152,0.1521,0.1522,0,0,0,0,0,0,0,0.1302,0.1308,0.1382,0.1383,0.1387,0.1388,0.1394,0.1415,0.1448,0.1422,0.1425,0.1435,0.1485,0.1491,0.1495,0.1527,0.1519,0.1521,0.1522,0.1523,0.1642,0.1643,0,0,0,0,0,0,0.1301,0.1306,0.1381,0.1384,0.1349,0.1389,0.1397,0.1412,0.1447,0.1454,0.1435,0.1436,0.1487,0.1493,0.1498,0.1581,0.1521,0.1523,0.1525,0.164,0.1642,0.1644,0,0,0,0,0,0,0.1299,0.1308,0.1379,0.1348,0.1357,0.1391,0.1408,0.1413,0.1448,0.1457,0.1463,0.1468,0.1488,0.1494,0.1541,0.1581,0.1524,0.1527,0.1638,0.164,0.1643,0.1703,0,0,0,0,0,0,0.1296,0.1306,0.1332,0.1348,0.1359,0.1415,0.1408,0.1414,0.1453,0.1456,0.1487,0.1492,0.1488,0.1538,0.1543,0.1584,0.1528,0.1635,0.1639,0.1642,0.1699,0.1708,0.1715,0,0,0,0,0,0.1292,0.1321,0.1333,0.1343,0.1388,0.1416,0.1422,0.1444,0.1455,0.1476,0.1498,0.1492,0.1563,0.1541,0.1547,0.1589,0.1634,0.1638,0.1642,0.1695,0.1706,0.1715,0,0,0,0,0,0,0.1292,0.1327,0.134,0.138,0.1406,0.1422,0.1452,0.1463,0.1497,0.1511,0.1513,0.152,0.1575,0.1575,0.1551,0.1633,0.1599,0.1604,0.1637,0.1647,0.1655,0.1654,0.153,0,0,0,0,0,0.1304,0.1339,0.1363,0.1401,0.1417,0.1441,0.1462,0.1476,0.1501,0.1518,0.1539,0.1566,0.1592,0.1614,0.1634,0.1681,0.1685,0.1713,0.1721,0.1728,0.1732,0.177,0.1782,0.1657,0.1657,0.1657,0,0,0.1317,0.1342,0.1364,0.1404,0.1429,0.1455,0.1454,0.1497,0.1525,0.152,0.1578,0.1596,0.161,0.1659,0.1685,0.1669,0.1769,0.1733,0.1739,0.1739,0.1776,0.1788,0.1798,0.166,0.1659,0.1659,0,0,0.1342,0.1383,0.1411,0.1435,0.1478,0.1492,0.1511,0.1545,0.1572,0.1621,0.1627,0.167,0.1713,0.173,0.1742,0.1809,0.1808,0.1824,0.1869,0.1906,0.1916,0.1925,0.1958,0.1969,0.1831,0.1831,0.1831,0,0.1357,0.1394,0.1424,0.1451,0.148,0.1512,0.1541,0.1571,0.1618,0.1648,0.1651,0.1728,0.1744,0.1798,0.1824,0.1828,0.1847,0.1829,0.1916,0.1925,0.1933,0.1964,0.1976,0.1834,0.1834,0.1833,0.1833,0,0.1383,0.1426,0.1449,0.1494,0.1526,0.1565,0.1602,0.1648,0.1687,0.1713,0.1788,0.181,0.1855,0.1872,0.187,0.1943,0.1938,0.1918,0.1888,0.1949,0.1978,0.1989,0.1839,0.1838,0.1837,0.1836,0,0,0.1378,0.1453,0.1463,0.1493,0.1556,0.1581,0.1645,0.1703,0.1749,0.1805,0.1865,0.192,0.1942,0.1957,0.1968,0.2004,0.2084,0.1995,0.1996,0.2023,0.2174,0.2068,0.207,0.2084,0.2086,0.2087,0.2174,0,0.1391,0.1445,0.1483,0.1545,0.1576,0.1633,0.1686,0.1747,0.1801,0.1868,0.1916,0.1975,0.1971,0.2005,0.2043,0.2072,0.2115,0.2062,0.2115,0.2117,0.201,0.2079,0.2094,0.2183,0.2185,0.2187,0.2188,0,0.1391,0.1434,0.1492,0.1575,0.1596,0.1641,0.1736,0.1786,0.1881,0.1928,0.1997,0.2032,0.2111,0.2089,0.218,0.215,0.2175,0.2189,0.2192,0.2076,0.2031,0.2107,0.2208,0.2207,0.2205,0.2204,0.2203,0,0.1353,0.1437,0.1489,0.1516,0.1611,0.1662,0.1719,0.181,0.1867,0.1971,0.2025,0.2107,0.2166,0.2209,0.2256,0.2229,0.2344,0.2302,0.223,0.2223,0.2264,0.2253,0.2367,0.2367,0.2367,0.2366,0.2366,0,0.1335,0.138,0.1481,0.1509,0.1579,0.1652,0.1733,0.1801,0.1906,0.1968,0.2056,0.2112,0.2202,0.2273,0.2293,0.2304,0.2379,0.2252,0.2242,0.2289,0.228,0.2272,0.226,0.237,0.2369,0.2368,0.2368,0,0.1277,0.1346,0.1409,0.1522,0.1562,0.1611,0.1738,0.1789,0.1899,0.1984,0.2026,0.2154,0.224,0.2316,0.2397,0.2344,0.2365,0.2351,0.242,0.241,0.2209,0.2199,0.2264,0.2261,0.2259,0.2256,0.2255,0,0.1248,0.1278,0.1401,0.1442,0.1499,0.1587,0.1644,0.1771,0.182,0.1985,0.2013,0.2154,0.2222,0.2255,0.234,0.2382,0.2357,0.2348,0.2252,0.2216,0.2201,0.2195,0.2189,0.2251,0.225,0.2249,0.2249,0,0.1194,0.125,0.1306,0.1386,0.1456,0.1521,0.1612,0.1639,0.1774,0.1895,0.1957,0.2016,0.2119,0.2183,0.2247,0.2265,0.2336,0.2321,0.2325,0.2235,0.2201,0.2187,0.2184,0.224,0.2241,0.2242,0.2243,0,0.1156,0.1178,0.1258,0.1317,0.1396,0.1428,0.1488,0.1553,0.1623,0.1793,0.1813,0.1962,0.2089,0.2126,0.218,0.2201,0.2159,0.2072,0.2088,0.2098,0.2006,0.1936,0.1899,0,0,0,0,0,0.1109,0.1129,0.1181,0.1238,0.1308,0.1356,0.1454,0.1515,0.164,0.1639,0.1721,0.1804,0.1892,0.1977,0.1969,0.2121,0.2173,0.2101,0.2081,0.2192,0.2202,0.211,0,0,0,0,0,0,0.1081,0.113,0.1151,0.1157,0.118,0.1245,0.1303,0.139,0.1396,0.1531,0.1591,0.1703,0.1821,0.1883,0.1936,0.1964,0.1917,0.2202,0.2198,0.2186,0.2195,0.2204,0.2112,0,0,0,0,0]},{"header":{"parameterUnit":"m.s-1","parameterCategory":2,"la1":30.2991,"la2":30.254,"lo1":-89.0895,"lo2":-89.0444,"dy":0.0017,"dx":0.0017,"nx":28,"ny":28,"refTime":"2024-04-29T03:00:00:Z","depth":"4","parameterNumber":3,"parameterNumberName":"V-component_of_CURRENTS"},"data":[0,0,0,0,0,0,0,0,0,0,0,0,0,0,0,0,0,0,0,0,0,0,0,0,0,0,0,0,0,0,0,0,0,0,0,0,0,0,0,0,0,0,0,0,0,0,0,0,0,0,0,0,0,0,0,0,0,0,0.0071,0.0071,0,0.0034,0.0034,0.0033,0.006,0.0062,0.0063,0.0064,0.0008,0.0006,0.0003,0,0,0,0,0,0,0,0,0,0,0,0,0,0.0124,0.0123,0.0071,0.0071,0.007,0.0034,0.0034,0.0033,0.006,0.0062,0.0063,0.0064,0.0009,0.0006,0.0003,0,0,0,0,0,0,0,0,0,0,0,0,0,0.0096,0.0123,0.0071,0.0079,0.0079,0.0034,0.0034,0.0033,0.006,0.0062,0.0063,0.0065,0.001,0.0006,0.0002,-0.0056,0,0,-0.0009,-0.0011,0,0,0,0,0,0,0,0,0.0097,0.0094,0.0078,0.0078,0.0078,0.0053,0.0032,0.0002,0.006,0.0068,0.0064,0.0066,0.002,0.0015,0.0005,-0.0058,-0.0061,-0.001,-0.0012,-0.0014,-0.0015,0,0,0,0,0,0,0,0.0099,0.0095,0.0057,0.0078,0.0078,0.007,0.0068,0.0026,0.0035,0.0067,0.0069,0.0063,0.002,0.0009,0.0004,-0.0061,-0.001,-0.0013,-0.0015,-0.0017,-0.0157,-0.0159,0,0,0,0,0,0,0.0103,0.0097,0.0058,0.0056,0.0092,0.0068,0.0066,0.006,0.0036,0.0033,0.0062,0.0065,0.0015,0.0009,0.0002,-0.0042,-0.0014,-0.0017,-0.0019,-0.0156,-0.0158,-0.0159,0,0,0,0,0,0,0.0104,0.01,0.006,0.0076,0.007,0.0065,0.0058,0.0058,0.0053,0.0032,0.003,0.0057,0.0016,0.0008,-0.0031,-0.0045,-0.0019,-0.0022,-0.0154,-0.0156,-0.0158,-0.0149,0,0,0,0,0,0,0.0106,0.01,0.0091,0.0076,0.0069,0.0033,0.0056,0.0056,0.0046,0.005,0.0026,0.0023,0.0017,-0.0025,-0.0035,-0.005,-0.0025,-0.0152,-0.0155,-0.0158,-0.0147,-0.015,-0.0153,0,0,0,0,0,0.0108,0.0089,0.0091,0.0086,0.0059,0.0031,0.0027,0.003,0.0044,0.0033,0.0022,0.0024,-0.0049,-0.003,-0.0041,-0.0057,-0.0151,-0.0154,-0.0157,-0.0146,-0.015,-0.0153,0,0,0,0,0,0,0.0104,0.0089,0.0092,0.0069,0.0052,0.0036,0.0021,0.0024,0.0006,0.001,0.0001,-0.0005,-0.0045,-0.0061,-0.004,-0.0108,-0.0099,-0.0105,-0.0087,-0.0091,-0.0093,-0.0059,-0.0029,0,0,0,0,0,0.0098,0.0084,0.0068,0.0048,0.0038,0.0029,0.0017,0.0019,0.0002,-0.0003,-0.0021,-0.0044,-0.0072,-0.0086,-0.0118,-0.0161,-0.0165,-0.0179,-0.0182,-0.0184,-0.0166,-0.0191,-0.0193,-0.017,-0.017,-0.017,0,0,0.009,0.008,0.0071,0.0046,0.0034,0.0023,0.0026,0.0005,0.0003,-0.0011,-0.0031,-0.0061,-0.0088,-0.0126,-0.0145,-0.0137,-0.0198,-0.0188,-0.0189,-0.0169,-0.0194,-0.0196,-0.0197,-0.0172,-0.0171,-0.0171,0,0,0.0074,0.0058,0.0046,0.0033,0.0014,0.0007,0.0002,-0.002,-0.0023,-0.0054,-0.006,-0.0092,-0.0142,-0.0155,-0.0168,-0.0213,-0.0216,-0.0233,-0.0213,-0.0239,-0.024,-0.0241,-0.0261,-0.0263,-0.0229,-0.0229,-0.0229,0,0.0068,0.0057,0.0036,0.0026,0.0024,0.0004,0.0002,-0.0016,-0.0045,-0.0047,-0.0058,-0.0119,-0.015,-0.0174,-0.0186,-0.0216,-0.0227,-0.0193,-0.0239,-0.024,-0.0241,-0.0261,-0.0264,-0.0229,-0.0229,-0.0229,-0.0229,0,0.0051,0.0044,0.0032,0.0024,0.0014,0.0001,-0.0014,-0.0029,-0.0039,-0.0049,-0.0084,-0.0131,-0.0154,-0.0185,-0.0196,-0.0224,-0.023,-0.0241,-0.022,-0.0242,-0.0263,-0.0266,-0.0228,-0.0228,-0.0228,-0.0228,0,0,0.0043,0.0027,0.0027,0.0041,0.0018,0.0017,0.0002,-0.0005,0.0007,-0.0047,-0.004,-0.0109,-0.0127,-0.0144,-0.0177,-0.0203,-0.0236,-0.022,-0.0222,-0.0222,-0.0287,-0.0285,-0.0288,-0.0253,-0.0253,-0.0253,-0.0301,0,0.0044,0.0046,0.0034,0.0046,0.0051,0.0039,0.0037,0.0028,0.0012,0.0003,-0.0048,-0.0066,-0.0114,-0.0123,-0.0161,-0.0212,-0.0242,-0.0221,-0.028,-0.0282,-0.0262,-0.0291,-0.0254,-0.0304,-0.0305,-0.0305,-0.0306,0,0.0041,0.005,0.0062,0.0088,0.0089,0.0092,0.0113,0.0106,0.0083,0.0069,0.0037,0.0004,-0.0045,-0.0084,-0.0175,-0.0158,-0.0217,-0.0263,-0.0266,-0.0262,-0.0285,-0.0278,-0.0312,-0.0311,-0.0311,-0.031,-0.031,0,0.0071,0.0077,0.0099,0.0102,0.0113,0.0127,0.0134,0.0128,0.0145,0.0115,0.0124,0.0055,0.0032,-0.0055,-0.0153,-0.0162,-0.025,-0.0275,-0.0331,-0.0332,-0.032,-0.0318,-0.0337,-0.0337,-0.0337,-0.0337,-0.0337,0,0.0084,0.0105,0.0117,0.0131,0.0174,0.0167,0.0205,0.0201,0.0205,0.0233,0.0163,0.0167,0.004,-0.0024,-0.0129,-0.0235,-0.0234,-0.0323,-0.0343,-0.0319,-0.0317,-0.0323,-0.032,-0.0339,-0.0338,-0.0338,-0.0338,0,0.0109,0.011,0.0147,0.0173,0.0188,0.022,0.0262,0.0292,0.0282,0.0316,0.0314,0.0258,0.0169,0.0041,-0.0095,-0.0188,-0.0298,-0.0338,-0.0293,-0.031,-0.0371,-0.0368,-0.0404,-0.0404,-0.0404,-0.0405,-0.0405,0,0.0119,0.0138,0.0186,0.022,0.0234,0.0277,0.0313,0.0326,0.0359,0.0374,0.0396,0.0334,0.0275,0.0096,-0.0062,-0.0259,-0.0294,-0.0354,-0.0376,-0.0362,-0.0378,-0.0374,-0.0371,-0.0405,-0.0405,-0.0405,-0.0405,0,0.0152,0.0168,0.0203,0.0268,0.0317,0.0372,0.042,0.0457,0.0476,0.0473,0.0484,0.0391,0.0289,0.0121,-0.003,-0.0178,-0.0318,-0.0358,-0.0359,-0.038,-0.0364,-0.0379,-0.0375,-0.0406,-0.0406,-0.0406,-0.0406,0,0.0184,0.0216,0.0263,0.0322,0.0386,0.0452,0.0472,0.0516,0.0549,0.0561,0.0562,0.0447,0.0376,0.0163,0.0021,-0.0122,-0.017,-0.0226,-0.0235,-0.0236,-0.0184,-0.0139,-0.0123,0,0,0,0,0,0.0216,0.0256,0.0315,0.0384,0.0446,0.0482,0.0543,0.0555,0.0575,0.0601,0.0587,0.0495,0.0297,0.0206,0.0066,-0.0013,-0.0216,-0.0185,-0.0289,-0.0411,-0.041,-0.0379,0,0,0,0,0,0,0.0241,0.0297,0.0323,0.0421,0.0473,0.0548,0.0589,0.0604,0.0609,0.061,0.0511,0.0455,0.026,0.0388,0.0066,0.0019,-0.0069,-0.0283,-0.0287,-0.0412,-0.0411,-0.041,-0.0378,0,0,0,0,0]}]]